EHI
0 0 0 0 0 0 0 0 0 0 0 0 0 0 0 0 0 0 0 0 0 0 0 0 0 0 0 0 0 0 0 0 0 0 0 0 0 0 0 0 0 0 0
0 0 0 0 0 0 0 0 0 0 0 0 0 0 0 0 0 0 0 0 0 0 0 0 0 0 0 0 0 0 0 0 0 0 0 0 0 0 0 0 0 0 0
0 0 0 0 0 0 0 0 0 0 0 0 0 0 0 0 0 0 0 0 0 0 0 0 0 0 0 0 0 0 0 0 0 0 0 0 0 0 0 0 0 0 0
0 0 0 0 0 0 0 0 0 0 0 0 0 0 0 0 0 0 0 0 0 0 0 0 0 0 0 0 0 0 0 0 0 0 0 0 0 0 0 0 0 0 0
0 0 0 0 0 0 0 0 0 0 0 0 0 0 0 0 0 0 0 0 0 0 0 0 0 0 0 0 0 0 0 0 0 0 0 0 0 0 0 0 0 0 0
0 0 0 0 0 0 0 0 0 0 0 0 0 0 0 0 0 0 0 0 0 0 0 0 0 0 0 0 0 0 0 0 0 0 0 0 0 0 0 0 0 0 0
0 0 0 0 0 0 0 0 0 0 0 0 0 0 0 0 0 0 0 0 0 0 0 0 0 0 0 0 0 0 0 0 0 0 0 0 0 0 0 0 0 0 0
0 0 0 0 0 0 0 0 0 0 0 0 0 0 0 0 0 0 0 0 0 0 0 0 0 0 0 0 0 0 0 0 0 0 0 0 0 0 0 0 0 0 0
0 0 0 0 0 0 0 0 0 0 0 0 0 0 0 0 0 0 0 0 0 0 0 0 0 0 0 0 0 0 0 0 0 0 0 0 0 0 0 0 0 0 0
0 0 0 0 0 0 0 0 0 0 0 0 0 0 0 0 0 0 0 0 0 0 0 0 0 0 0 0 0 0 0 0 0 0 0 0 0 0 0 0 0 0 0
0 0 0 0 0 0 0 0 0 0 0 0 0 0 0 0 0 0 0 0 0 0 0 0 0 0 0 0 0 0 0 0 0 0 0 0 0 0 0 0 0 0 0
0 0 0 0 0 0 0 0 0 0 0 0 0 0 0 0 0 0 0 0 0 0 0 0 0 0 0 0 0 0 0 0 0 0 0 0 0 0 0 0 0 0 0
0 0 0 0 0 0 0 0 0 0 0 0 0 0 0 0 0 0 0 0 0 0 0 0 0 0 0 0 0 0 0 0 0 0 0 0 0 0 0 0 0 0 0
0 0 0 0 0 0 0 0 0 0 0 0 0 0 0 0 0 0 0 0 0 0 0 0 0 0 0 0 0 0 0 0 0 0 0 0 0 0 0 0 0 0 0
0 0 0 0 0 0 0 0 0 0 0 0 0 0 0 0 0 0 0 0 0 0 0 0 0 0 0 0 0 0 0 0 0 0 0 0 0 0 0 0 0 0 0
0 0 0 0 0 0 0 0 0 0 0 0 0 0 0 0 0 0 0 0 0 0 0 0 0 0 0 0 0 0 0 0 0 0 0 0 0 0 0 0 0 0 0
0 0 0 0 0 0 0 0 0 0 0 0 0 0 0 0 0 0 0 0 0 0 0 0 0 0 0 0 0 0 0 0 0 0 0 0 0 0 0 0 0 0 0
0 0 0 0 0 0 0 0 0 0 0 0 0 0 0 0 0 0 0 0 0 0 0 0 0 0 0 0 0 0 0 0 0 0 0 0 0 0 0 0 0 0 0
0 0 0 0 0 0 0 0 0 0 0 0 0 0 0 0 0 0 0 0 0 0 0 0 0 0 0 0 0 0 0 0 0 0 0 0 0 0 0 0 0 0 0
0 0 0 0 0 0 0 0 0 0 0 0 0 0 0 0 0 0 0 0 0 0 0 0 0 0 0 0 0 0 0 0 0 0 0 0 0 0 0 0 0 0 0
0 0 0 0 0 0 0 0 0 0 0 0 0 0 0 0 0 0 0 0 0 0 0 0 0 0 0 0 0 0 0 0 0 0 0 0 0 0 0 0 0 0 0
0 0 0 0 0 0 0 0 0 0 0 0 0 0 0 0 0 0 0 0 0 0 0 0 0 0 0 0 0 0 0 0 0 0 0 0 0 0 0 0 0 0 0
0 0 0 0 0 0 0 0 0 0 0 0 0 0 0 0 0 0 0 0 0 0 0 0 0 0 0 0 0 0 0 0 0 0 0 0 0 0 0 0 0 0 0
0 0 0 0 0 0 0 0 0 0 0 0 0 0 0 0 0 0 0 0 0 0 0 0 0 0 0 0 0 0 0 0 0 0 0 0 0 0 0 0 0 0 0
0 0 0 0 0 0 0 0 0 0 0 0 0 0 0 0 0 0 0 0 0 0 0 0 0 0 0 0 0 0 0 0 0 0 0 0 0 0 0 0 0 0 0
0 0 0 0 0 0 0 0 0 0 0 0 0 0 0 0 0 0 0 0 0 0 0 0 0 0 0 0 0 0 0 0 0 0 0 0 0 0 0 0 0 0 0
Wind_Speed
4 2 3 3 3 4 4 5 6 6 5 4 5 4 4 3 3 3 4 5 5 6 5 4 5 5 4 5 5 4 4 2 2 3 2 2 2 1 1 1 1 1 1
2 1 2 2 4 5 5 5 6 6 6 5 4 3 3 3 3 2 3 4 5 5 5 5 5 5 4 5 5 5 3 2 2 3 3 1 2 2 1 1 0 1 1
3 2 2 2 2 4 5 5 6 6 6 5 3 3 3 2 2 3 3 3 4 5 5 5 5 6 5 5 6 5 6 4 2 1 3 3 3 1 1 1 0 0 0
2 2 1 1 2 3 4 4 5 5 6 6 6 6 5 4 4 4 3 3 4 5 5 5 5 5 5 5 5 5 4 5 4 1 1 2 3 3 1 2 1 1 1
2 2 2 2 2 2 2 3 4 5 5 6 7 6 4 3 3 3 4 4 3 4 4 5 4 5 4 5 5 5 5 4 4 4 2 2 1 1 2 2 2 1 2
2 2 1 0 1 1 1 2 4 4 5 5 6 6 6 5 5 4 4 4 2 2 4 4 4 4 4 5 5 5 6 5 4 3 3 3 3 3 3 2 2 2 2
3 3 2 2 1 0 0 2 3 4 4 5 5 5 6 7 7 6 5 4 3 2 4 4 4 4 4 4 4 5 5 6 6 5 4 3 3 3 3 3 2 1 1
6 5 3 2 1 1 0 1 3 3 4 4 4 4 4 4 4 5 4 5 4 4 5 5 5 4 4 4 4 4 4 5 5 5 5 3 3 3 3 3 3 1 1
7 6 5 4 2 1 0 1 2 3 3 4 3 3 3 3 4 4 4 4 3 3 5 5 5 5 5 5 5 4 4 4 5 5 5 3 3 3 3 3 4 4 2
7 7 6 5 4 3 2 1 1 2 2 3 3 2 3 3 3 4 4 4 4 4 5 5 4 4 4 5 5 4 4 4 4 4 5 4 3 3 3 3 3 3 3
7 7 6 5 5 4 4 3 2 2 1 2 2 2 2 2 3 3 4 4 4 4 5 5 5 5 5 4 5 4 5 5 4 4 5 5 4 3 3 3 3 3 3
8 7 7 7 6 6 5 4 3 2 1 0 1 2 2 2 3 3 3 3 4 4 4 4 4 4 4 4 5 5 5 5 5 5 5 5 4 4 3 3 4 3 3
9 8 8 8 7 7 5 4 4 3 2 1 1 1 1 2 3 3 3 3 3 3 3 4 4 4 4 4 5 5 5 5 5 5 6 5 5 5 4 4 4 3 2
9 9 9 9 8 7 6 5 4 4 3 2 1 1 1 2 2 3 3 3 3 4 3 4 4 4 4 4 4 4 4 4 4 4 5 5 5 6 5 4 4 3 3
11 11 10 9 9 9 8 6 5 4 3 3 2 1 1 1 2 2 2 2 3 3 3 3 3 3 3 3 4 4 4 4 4 3 4 4 5 6 5 4 4 4 3
12 11 11 10 10 9 8 8 6 5 3 2 2 2 1 1 1 2 2 2 3 3 3 3 3 3 3 4 5 4 4 4 4 4 3 3 4 5 6 7 7 6 5
12 12 11 10 9 9 8 7 7 5 3 2 2 2 1 0 1 1 2 2 3 3 3 3 3 3 3 4 5 5 3 4 4 4 3 3 3 4 3 4 5 6 7
11 11 10 10 9 8 8 7 6 5 4 3 3 2 1 0 1 1 2 2 2 3 3 2 2 2 2 3 4 4 2 2 3 3 4 4 3 3 3 3 2 3 4
10 10 9 9 9 8 8 7 6 4 4 4 3 3 2 0 1 1 1 1 2 2 2 2 2 2 2 3 3 3 2 2 2 2 2 3 3 5 5 3 3 3 3
10 9 9 8 8 8 7 6 6 5 4 4 4 3 2 1 1 1 0 0 1 2 2 1 1 2 2 2 3 3 2 2 1 1 2 3 4 5 5 4 4 4 3
10 10 8 7 7 7 6 6 6 5 5 4 4 3 3 2 1 0 0 1 1 2 2 1 1 1 1 2 2 2 2 2 2 2 1 2 4 5 5 5 4 5 3
11 10 9 8 7 7 6 6 7 6 5 4 4 3 3 2 1 1 0 1 2 2 2 1 1 0 0 1 2 2 2 2 2 2 2 2 4 4 4 3 3 4 3
10 9 8 8 7 7 6 6 7 6 5 4 3 3 3 2 2 1 0 1 1 2 1 1 1 0 0 0 1 2 2 2 1 1 2 2 2 2 2 2 3 2 2
9 8 8 8 8 8 7 6 6 5 4 4 3 3 2 2 2 1 1 0 1 1 1 1 1 0 0 0 0 1 1 2 1 1 2 2 2 1 1 1 1 1 1
8 7 7 8 8 8 8 7 6 5 4 4 3 3 2 2 2 2 2 1 1 1 1 1 1 1 1 2 1 1 1 1 2 2 1 1 1 1 1 1 1 1 1
8 8 8 8 8 7 7 7 6 5 4 3 3 2 2 1 1 2 3 4 3 3 3 2 1 1 1 1 1 1 2 2 4 2 1 1 1 2 2 2 1 1 1
Wind_Direction
248 230 201 183 169 168 170 174 174 173 163 163 164 164 174 171 170 173 168 167 165 165 163 158 154 155 156 156 148 135 126 119 126 107 78 34 41 55 61 46 41 21 24
277 258 206 182 181 179 180 180 181 177 174 176 176 164 156 162 166 162 160 165 163 164 168 164 162 159 150 148 152 143 133 133 144 129 117 67 355 351 18 31 39 340 3
241 240 224 216 194 190 189 188 187 180 176 161 142 119 108 106 136 160 171 172 170 167 165 167 164 164 163 167 169 162 151 153 165 149 144 153 198 270 325 322 293 271 289
266 257 238 233 219 216 197 186 180 175 169 159 161 164 168 172 180 174 172 168 169 169 165 167 167 168 169 170 177 171 155 152 161 149 87 130 146 151 241 309 296 264 251
262 250 233 226 234 216 193 183 167 166 165 168 170 169 170 167 146 144 153 163 164 165 161 166 167 170 174 174 175 170 166 167 168 163 148 119 87 126 157 230 273 289 260
303 299 317 14 1 36 154 169 163 166 167 172 173 171 167 157 150 152 163 166 159 164 162 162 170 175 176 180 181 179 177 181 172 166 162 160 161 175 171 193 224 251 273
358 353 353 1 1 27 138 174 169 172 171 170 175 177 172 168 170 170 175 169 168 177 178 172 177 178 179 181 178 179 185 184 180 182 187 183 179 160 162 164 185 227 277
3 357 343 337 322 308 188 171 180 175 172 173 178 173 169 171 173 173 172 179 186 188 177 177 182 180 176 176 175 181 190 186 189 192 186 186 193 176 170 166 160 182 273
359 357 356 357 353 341 283 208 185 170 170 170 166 169 168 168 172 171 170 178 181 174 170 176 181 181 180 179 176 184 191 190 194 195 192 194 196 190 186 176 174 174 216
1 2 2 3 6 1 3 34 83 161 161 161 166 167 174 176 170 165 171 172 172 167 166 171 177 179 183 182 181 183 188 189 198 193 191 197 195 191 188 189 190 190 197
356 359 358 1 10 17 25 28 35 45 84 146 162 156 166 172 168 169 176 175 173 170 172 175 177 180 185 185 185 190 186 191 195 194 195 201 192 191 191 185 186 194 189
0 359 2 6 14 19 20 23 22 29 28 100 141 161 160 163 167 174 177 170 172 173 172 170 174 181 182 183 188 191 190 191 195 198 195 204 192 193 192 189 196 198 195
6 5 7 8 5 5 8 11 12 7 4 32 132 143 156 175 181 182 175 166 166 163 163 167 174 181 181 183 188 188 192 196 199 197 197 202 194 200 198 195 198 196 195
4 4 3 1 358 354 356 1 3 4 7 16 44 158 188 198 191 180 167 163 163 163 171 177 179 181 178 179 182 184 187 195 201 201 200 200 200 203 197 198 198 190 189
1 1 359 354 351 350 350 351 355 358 2 10 6 300 222 179 165 166 162 158 161 169 176 174 175 176 176 182 183 187 188 191 195 202 204 205 204 203 200 195 193 187 192
352 352 353 351 348 345 342 342 342 345 350 355 347 347 5 137 153 167 165 157 161 160 161 172 178 181 189 191 192 189 186 188 192 201 204 203 205 205 208 207 201 195 195
346 344 341 338 337 336 335 335 331 335 345 347 347 354 1 101 137 156 155 165 171 160 164 176 176 184 194 189 192 194 186 186 194 196 194 197 203 202 198 207 213 217 219
340 335 332 332 332 331 331 331 334 341 347 353 349 350 344 43 85 123 156 160 159 163 168 175 180 181 198 191 188 184 181 184 196 200 195 194 199 200 194 195 209 227 231
328 326 326 325 327 330 331 336 340 341 346 346 342 332 321 252 139 133 157 157 151 150 163 172 172 175 196 196 188 175 164 171 194 202 194 191 198 204 197 190 207 232 251
330 329 330 331 332 333 336 341 338 337 331 330 330 328 323 304 204 192 195 141 147 148 148 149 168 177 197 202 190 177 163 173 187 192 201 202 203 201 193 192 199 220 235
331 332 332 332 332 332 337 338 336 328 323 331 334 335 333 323 319 48 17 139 135 131 133 136 155 182 207 199 194 189 176 180 180 189 203 213 203 200 201 202 206 219 216
333 334 334 333 335 336 338 336 333 327 332 334 336 334 334 332 351 47 47 122 139 139 141 133 109 166 218 201 204 204 203 186 181 195 206 205 197 199 200 204 200 197 187
329 331 332 330 333 336 338 334 329 328 331 336 336 332 337 342 344 353 59 104 130 146 153 153 161 290 357 198 188 193 195 195 194 194 198 189 182 192 198 188 182 179 175
325 328 332 333 332 335 335 329 326 329 331 332 331 340 352 358 1 358 15 97 149 152 164 172 178 212 323 280 186 172 165 155 150 146 147 151 157 167 161 160 195 199 189
323 328 332 330 328 332 334 336 336 337 337 337 337 346 356 355 5 15 12 355 340 224 211 211 199 199 227 250 243 199 184 175 166 138 125 125 142 156 167 161 161 170 179
324 327 330 329 330 335 337 340 339 340 339 340 344 347 350 357 9 25 22 23 18 22 19 13 313 292 274 255 234 223 201 176 162 145 161 176 194 207 210 203 204 206 205